SCP
0 0 0 0 0 0 0 0 0 0 0 0 0 0 0 0 0 0 0 0 0 0 0 0 0 0 0 0 0 0 0 0 0 0 0 0 0 0 0 0 0 0 0
0 0 0 0 0 0 0 0 0 0 0 0 0 0 0 0 0 0 0 0 0 0 0 0 0 0 0 0 0 0 0 0 0 0 0 0 0 0 0 0 0 0 0
0 0 0 0 0 0 0 0 0 0 0 0 0 0 0 0 0 0 0 0 0 0 0 0 0 0 0 0 0 0 0 0 0 0 0 0 0 0 0 0 0 0 0
0 0 0 0 0 0 0 0 0 0 0 0 0 0 0 0 0 0 0 0 0 0 0 0 0 0 0 0 0 0 0 0 0 0 0 0 0 0 0 0 0 0 0
0 0 0 0 0 0 0 0 0 0 0 0 0 0 0 0 0 0 0 0 0 0 0 0 0 0 0 0 0 0 0 0 0 0 0 0 0 0 0 0 0 0 0
0 0 0 0 0 0 0 0 0 0 0 0 0 0 0 0 0 0 0 0 0 0 0 0 0 0 0 0 0 0 0 0 0 0 0 0 0 0 0 0 0 0 0
0 0 0 0 0 0 0 0 0 0 0 0 0 0 0 0 0 0 0 0 0 0 0 0 0 0 0 0 0 0 0 0 0 0 0 0 0 0 0 0 0 0 0
0 0 0 0 0 0 0 0 0 0 0 0 0 0 0 0 0 0 0 0 0 0 0 0 0 0 0 0 0 0 0 0 0 0 0 0 0 0 0 0 0 0 0
0 0 0 0 0 0 0 0 0 0 0 0 0 0 0 0 0 0 0 0 0 0 0 0 0 0 0 0 0 0 0 0 0 0 0 0 0 0 0 0 0 0 0
0 0 0 0 0 0 0 0 0 0 0 0 0 0 0 0 0 0 0 0 0 0 0 0 0 0 0 0 0 0 0 0 0 0 0 0 0 0 0 0 0 0 0
0 0 0 0 0 0 0 0 0 0 0 0 0 0 0 0 0 0 0 0 0 0 0 0 0 0 0 0 0 0 0 0 0 0 0 0 0 0 0 0 0 0 0
0 0 0 0 0 0 0 0 0 0 0 0 0 0 0 0 0 0 0 0 0 0 0 0 0 0 0 0 0 0 0 0 0 0 0 0 0 0 0 0 0 0 0
0 0 0 0 0 0 0 0 0 0 0 0 0 0 0 0 0 0 0 0 0 0 0 0 0 0 0 0 0 0 0 0 0 0 0 0 0 0 0 0 0 0 0
0 0 0 0 0 0 0 0 0 0 0 0 0 0 0 0 0 0 0 0 0 0 0 0 0 0 0 0 0 0 0 0 0 0 0 0 0 0 0 0 0 0 0
0 0 0 0 0 0 0 0 0 0 0 0 0 0 0 0 0 0 0 0 0 0 0 0 0 0 0 0 0 0 0 0 0 0 0 0 0 0 0 0 0 0 0
0 0 0 0 0 0 0 0 0 0 0 0 0 0 0 0 0 0 0 0 0 0 0 0 0 0 0 0 0 0 0 0 0 0 0 0 0 0 0 0 0 0 0
0 0 0 0 0 0 0 0 0 0 0 0 0 0 0 0 0 0 0 0 0 0 0 0 0 0 0 0 0 0 0 0 0 0 0 0 0 0 0 0 0 0 0
0 0 0 0 0 0 0 0 0 0 0 0 0 0 0 0 0 0 0 0 0 0 0 0 0 0 0 0 0 0 0 0 0 0 0 0 0 0 0 0 0 0 0
0 0 0 0 0 0 0 0 0 0 0 0 0 0 0 0 0 0 0 0 0 0 0 0 0 0 0 0 0 0 0 0 0 0 0 0 0 0 0 0 0 0 0
0 0 0 0 0 0 0 0 0 0 0 0 0 0 0 0 0 0 0 0 0 0 0 0 0 0 0 0 0 0 0 0 0 0 0 0 0 0 0 0 0 0 0
0 0 0 0 0 0 0 0 0 0 0 0 0 0 0 0 0 0 0 0 0 0 0 0 0 0 0 0 0 0 0 0 0 0 0 0 0 0 0 0 0 0 0
0 0 0 0 0 0 0 0 0 0 0 0 0 0 0 0 0 0 0 0 0 0 0 0 0 0 0 0 0 0 0 0 0 0 0 0 0 0 0 0 0 0 0
0 0 0 0 0 0 0 0 0 0 0 0 0 0 0 0 0 0 0 0 0 0 0 0 0 0 0 0 0 0 0 0 0 0 0 0 0 0 0 -0 -0 -0 -0
0 0 0 0 0 0 0 0 0 0 0 0 0 0 0 0 0 0 0 0 0 0 0 0 0 0 0 0 0 0 0 0 0 0 -0 0 -0 -0 -0 -0 -0 -0 -0
0 0 0 0 0 0 0 0 0 0 0 0 0 0 0 0 0 0 0 0 0 0 0 0 0 0 0 0 0 -0 -0 -0 -0 -0 -0 -0 -0 -0 -0 -0 -0 -0 -0
0 0 0 0 0 0 0 0 0 0 0 0 0 0 0 0 0 0 0 0 0 0 0 0 0 0 -0 -0 -0 -0 -0 -0 -0 -0 -0 -0 -0 -0 -0 -0 -0 -0 -0
Wind_Speed_500mb
52 52 51 48 45 43 40 37 35 34 32 29 26 23 20 18 17 16 16 17 18 19 20 21 22 23 25 26 30 32 35 40 51 57 53 52 53 56 56 59 63 66 68
48 51 50 48 48 47 43 39 38 36 34 32 30 28 26 24 23 22 22 23 24 26 27 29 31 33 34 36 39 41 44 48 58 70 66 66 66 64 71 74 75 76 77
50 47 48 49 49 47 43 41 40 39 37 35 34 32 30 30 30 29 28 29 31 33 34 36 38 41 41 44 47 50 53 56 61 72 82 78 81 77 81 82 87 89 88
54 49 46 45 43 42 41 42 41 40 39 38 36 36 36 36 35 36 37 38 39 38 40 42 44 46 48 51 55 58 60 63 66 73 82 86 88 88 91 94 99 94 97
58 55 48 39 38 39 41 41 41 42 41 41 42 41 41 40 40 41 44 44 44 45 46 48 50 51 53 56 60 63 64 67 70 76 87 93 91 86 83 91 98 104 105
59 57 52 47 42 39 39 39 40 41 42 42 42 42 42 43 42 42 44 45 45 47 49 51 54 56 59 60 61 62 58 55 63 68 76 78 88 74 77 83 84 84 93
58 59 57 53 47 41 39 40 40 41 41 41 40 40 39 39 38 39 41 44 46 48 51 53 54 54 57 62 64 66 66 65 63 62 70 79 81 82 79 82 82 82 90
54 56 55 53 48 43 40 38 37 37 36 36 35 34 34 35 35 37 42 44 45 46 47 49 52 55 55 59 62 65 68 70 70 71 70 76 76 80 81 87 90 88 88
49 50 50 48 45 41 37 34 32 30 29 28 28 28 29 30 32 34 40 41 43 44 47 49 52 55 55 52 54 62 65 67 62 61 65 68 71 73 75 75 83 81 78
47 47 45 42 38 35 31 28 25 23 22 21 22 23 23 25 29 33 38 43 44 46 48 50 54 57 58 52 48 56 64 69 71 72 73 77 82 90 93 87 87 82 84
45 43 40 36 32 28 24 21 19 16 15 14 16 19 22 25 28 33 37 41 43 48 53 57 58 59 55 49 51 60 60 63 77 85 92 96 99 98 93 87 76 67 69
42 38 34 30 26 22 18 15 12 10 9 10 13 17 22 25 29 33 38 41 42 50 56 62 62 53 51 48 54 63 59 65 83 91 92 91 87 84 82 78 77 75 71
37 33 29 25 21 18 13 9 5 4 7 12 17 21 25 30 34 40 43 43 45 43 55 57 51 55 67 79 77 77 81 84 82 79 79 79 76 76 76 76 78 78 76
34 30 26 21 16 13 8 3 3 7 12 17 24 31 36 41 44 46 49 53 54 56 59 65 69 74 77 80 86 88 87 81 77 74 74 73 73 72 74 69 69 67 74
31 27 23 19 14 8 4 0 5 12 18 24 32 39 45 49 49 41 43 49 52 54 64 71 75 78 83 86 87 84 81 77 74 70 69 69 69 70 71 65 57 64 73
28 25 19 15 11 6 1 8 13 17 19 23 29 36 44 46 44 44 47 50 53 52 63 70 75 79 79 79 78 77 74 71 67 65 64 63 65 64 63 66 59 64 75
22 20 16 10 3 3 10 16 20 22 26 30 37 43 46 53 56 58 55 52 51 58 67 69 69 70 70 70 70 70 72 68 64 61 60 60 60 57 62 63 65 66 68
19 13 6 2 9 16 23 31 38 46 51 51 45 50 55 61 65 67 63 58 65 61 62 63 64 65 67 67 66 66 66 65 61 59 58 57 56 57 60 62 63 63 65
8 3 6 13 20 27 33 39 45 49 53 58 59 56 59 64 67 67 64 59 61 62 61 62 60 61 63 62 60 60 60 60 57 57 56 55 55 55 59 59 61 62 62
4 10 17 23 28 35 40 45 49 53 58 63 66 69 70 71 70 69 64 62 60 59 60 60 58 58 58 58 58 58 58 58 56 55 56 55 55 55 59 61 62 64 63
14 19 25 31 36 41 46 50 56 63 67 69 70 68 64 57 66 64 64 61 60 58 57 56 56 56 54 54 55 56 57 58 58 58 58 58 58 62 63 64 64 62 61
21 27 32 37 43 48 54 60 64 66 68 69 69 65 59 59 59 60 59 58 56 56 52 53 55 55 52 52 52 54 56 58 57 57 60 63 65 67 66 65 63 60 59
28 32 38 44 52 58 61 61 62 62 63 62 61 62 60 59 59 58 59 57 57 54 50 49 52 53 48 48 48 50 54 56 58 59 62 66 66 63 61 61 59 60 62
37 45 52 55 57 56 56 57 56 57 58 59 59 60 61 61 61 61 59 57 55 52 48 49 50 49 49 48 48 50 52 54 55 58 58 60 60 57 56 57 59 59 61
48 50 50 50 50 51 53 54 56 58 59 59 61 62 63 63 62 61 59 56 53 50 50 48 47 46 47 48 47 47 46 44 43 44 46 48 52 53 55 57 60 63 65
43 43 44 46 49 52 55 58 60 61 61 61 61 61 62 61 59 58 55 52 50 50 48 46 45 44 45 45 42 37 35 38 43 44 47 51 58 61 60 58 57 59 61
Wind_Direction_500mb
211 213 213 211 212 214 215 216 216 217 219 221 224 230 237 247 255 262 271 278 284 289 294 296 295 295 300 301 302 301 299 297 291 297 302 305 307 309 311 311 312 311 310
211 213 214 215 215 218 218 220 223 226 227 227 232 237 244 252 260 267 273 278 283 288 289 293 296 297 297 298 296 294 294 294 295 295 299 301 302 307 309 311 311 310 308
211 212 214 216 219 221 221 223 227 230 233 235 239 245 250 254 260 266 272 278 282 285 290 292 292 292 294 295 295 295 294 292 292 293 297 299 302 305 305 306 308 308 306
212 213 214 217 221 224 225 227 230 233 236 240 243 247 252 256 261 267 273 277 281 285 287 288 289 290 291 291 292 293 293 292 292 291 293 299 301 306 306 308 307 306 305
213 214 214 214 216 220 224 227 229 234 237 241 245 250 255 260 265 269 273 276 280 281 283 285 286 287 288 290 293 294 296 297 299 300 299 301 302 304 303 306 305 306 303
212 212 210 211 213 218 222 227 230 234 238 242 247 252 256 261 265 269 274 276 279 282 283 283 284 285 287 289 290 291 289 285 286 287 290 289 292 294 296 294 293 296 297
207 207 207 210 212 215 220 224 228 233 237 242 247 251 255 260 265 270 275 280 284 286 288 290 291 292 293 293 293 293 294 295 293 293 292 294 296 301 304 304 300 298 297
204 204 205 207 210 212 216 220 224 229 234 239 245 252 258 264 271 276 280 284 288 291 293 296 296 297 296 296 297 297 296 298 300 300 301 303 305 307 305 304 303 301 299
193 194 196 199 201 203 207 211 216 223 230 238 247 255 263 270 277 281 285 291 293 296 298 299 299 299 299 304 303 303 304 303 305 300 295 290 284 279 278 289 287 294 296
179 181 183 186 189 192 195 201 210 220 231 241 252 262 273 281 286 291 293 297 300 300 298 300 302 303 307 313 316 308 301 300 306 297 291 284 283 287 290 292 292 294 294
168 170 171 173 178 181 188 195 203 214 227 245 265 279 289 294 298 300 302 306 309 305 305 305 304 308 313 313 305 291 295 301 293 290 292 294 296 297 298 297 295 289 291
160 161 162 164 168 171 176 181 192 211 238 267 286 298 302 306 308 307 307 308 308 307 306 306 310 317 308 304 301 306 309 302 303 304 304 304 304 303 301 299 294 291 288
153 154 154 156 156 156 161 172 200 250 290 299 298 301 305 307 309 310 311 310 310 315 309 314 306 307 308 310 308 308 306 307 308 308 307 306 305 304 301 299 296 297 294
148 146 144 144 143 143 140 127 315 311 316 316 313 312 313 314 316 317 320 324 320 319 324 312 307 305 304 304 304 306 308 310 311 310 308 307 307 306 304 305 303 302 300
144 140 138 135 132 130 134 337 323 326 327 326 321 320 320 320 324 325 321 317 318 316 305 300 299 301 303 304 305 306 308 311 313 314 314 313 311 310 309 310 308 300 302
141 140 139 131 135 139 348 326 324 323 320 318 315 314 314 313 315 315 314 313 311 310 294 295 299 301 304 306 308 310 313 315 316 315 315 314 312 312 311 310 308 304 308
131 126 138 144 145 308 306 304 300 300 308 309 307 308 309 309 309 311 313 313 301 296 299 300 302 303 305 307 310 313 314 316 316 315 314 314 314 314 311 312 311 312 311
135 137 124 8 327 322 320 319 318 316 315 313 312 312 311 310 310 310 310 305 303 299 300 303 305 306 308 310 312 313 313 314 315 315 314 315 316 316 317 315 315 317 318
125 85 336 328 325 323 321 318 316 314 313 312 311 309 307 306 307 307 306 307 306 306 306 305 305 304 305 308 311 312 312 313 314 313 313 315 318 320 318 317 317 317 318
358 340 332 328 322 317 313 312 310 310 311 312 314 315 315 313 312 313 311 308 307 305 304 303 304 304 306 309 311 312 312 312 313 314 315 317 318 319 317 318 318 317 316
333 329 322 317 314 313 313 312 313 313 314 313 313 314 315 309 310 308 308 307 306 304 305 305 305 305 307 308 309 310 310 311 313 314 315 316 317 315 315 315 315 316 317
318 317 315 313 313 313 313 314 314 313 313 312 313 312 313 310 309 308 308 308 308 307 306 305 303 304 307 306 307 308 308 309 312 314 315 314 310 308 309 311 314 315 316
312 311 312 313 314 314 314 315 314 314 314 314 314 314 315 315 315 313 312 311 309 307 306 304 301 303 306 305 305 305 307 312 314 311 307 305 305 307 308 307 309 310 313
315 317 317 317 317 317 316 316 316 316 315 315 315 314 314 315 314 313 311 310 309 307 305 304 304 307 307 309 308 309 310 311 309 307 305 303 304 307 307 307 308 311 313
314 314 316 317 317 318 317 319 318 317 316 315 313 312 312 311 311 310 310 310 310 307 304 306 307 308 310 309 311 314 313 311 310 310 310 311 310 311 310 309 310 313 314
313 316 317 318 320 320 320 320 319 318 317 316 315 314 314 312 312 312 312 311 309 306 308 309 308 310 312 314 316 316 318 319 317 316 316 312 310 310 310 309 310 309 310
Wind_Speed_850mb
52 52 51 48 45 43 40 37 35 34 32 29 26 23 20 18 17 16 16 17 18 19 20 21 22 23 25 26 30 32 35 40 51 57 53 52 53 56 56 59 63 66 68
48 51 50 48 48 47 43 39 38 36 34 32 30 28 26 24 23 22 22 23 24 26 27 29 31 33 34 36 39 41 44 48 58 70 66 66 66 64 71 74 75 76 77
50 47 48 49 49 47 43 41 40 39 37 35 34 32 30 30 30 29 28 29 31 33 34 36 38 41 41 44 47 50 53 56 61 72 82 78 81 77 81 82 87 89 88
54 49 46 45 43 42 41 42 41 40 39 38 36 36 36 36 35 36 37 38 39 38 40 42 44 46 48 51 55 58 60 63 66 73 82 86 88 88 91 94 99 94 97
58 55 48 39 38 39 41 41 41 42 41 41 42 41 41 40 40 41 44 44 44 45 46 48 50 51 53 56 60 63 64 67 70 76 87 93 91 86 83 91 98 104 105
59 57 52 47 42 39 39 39 40 41 42 42 42 42 42 43 42 42 44 45 45 47 49 51 54 56 59 60 61 62 58 55 63 68 76 78 88 74 77 83 84 84 93
58 59 57 53 47 41 39 40 40 41 41 41 40 40 39 39 38 39 41 44 46 48 51 53 54 54 57 62 64 66 66 65 63 62 70 79 81 82 79 82 82 82 90
54 56 55 53 48 43 40 38 37 37 36 36 35 34 34 35 35 37 42 44 45 46 47 49 52 55 55 59 62 65 68 70 70 71 70 76 76 80 81 87 90 88 88
49 50 50 48 45 41 37 34 32 30 29 28 28 28 29 30 32 34 40 41 43 44 47 49 52 55 55 52 54 62 65 67 62 61 65 68 71 73 75 75 83 81 78
47 47 45 42 38 35 31 28 25 23 22 21 22 23 23 25 29 33 38 43 44 46 48 50 54 57 58 52 48 56 64 69 71 72 73 77 82 90 93 87 87 82 84
45 43 40 36 32 28 24 21 19 16 15 14 16 19 22 25 28 33 37 41 43 48 53 57 58 59 55 49 51 60 60 63 77 85 92 96 99 98 93 87 76 67 69
42 38 34 30 26 22 18 15 12 10 9 10 13 17 22 25 29 33 38 41 42 50 56 62 62 53 51 48 54 63 59 65 83 91 92 91 87 84 82 78 77 75 71
37 33 29 25 21 18 13 9 5 4 7 12 17 21 25 30 34 40 43 43 45 43 55 57 51 55 67 79 77 77 81 84 82 79 79 79 76 76 76 76 78 78 76
34 30 26 21 16 13 8 3 3 7 12 17 24 31 36 41 44 46 49 53 54 56 59 65 69 74 77 80 86 88 87 81 77 74 74 73 73 72 74 69 69 67 74
31 27 23 19 14 8 4 0 5 12 18 24 32 39 45 49 49 41 43 49 52 54 64 71 75 78 83 86 87 84 81 77 74 70 69 69 69 70 71 65 57 64 73
28 25 19 15 11 6 1 8 13 17 19 23 29 36 44 46 44 44 47 50 53 52 63 70 75 79 79 79 78 77 74 71 67 65 64 63 65 64 63 66 59 64 75
22 20 16 10 3 3 10 16 20 22 26 30 37 43 46 53 56 58 55 52 51 58 67 69 69 70 70 70 70 70 72 68 64 61 60 60 60 57 62 63 65 66 68
19 13 6 2 9 16 23 31 38 46 51 51 45 50 55 61 65 67 63 58 65 61 62 63 64 65 67 67 66 66 66 65 61 59 58 57 56 57 60 62 63 63 65
8 3 6 13 20 27 33 39 45 49 53 58 59 56 59 64 67 67 64 59 61 62 61 62 60 61 63 62 60 60 60 60 57 57 56 55 55 55 59 59 61 62 62
4 10 17 23 28 35 40 45 49 53 58 63 66 69 70 71 70 69 64 62 60 59 60 60 58 58 58 58 58 58 58 58 56 55 56 55 55 55 59 61 62 64 63
14 19 25 31 36 41 46 50 56 63 67 69 70 68 64 57 66 64 64 61 60 58 57 56 56 56 54 54 55 56 57 58 58 58 58 58 58 62 63 64 64 62 61
21 27 32 37 43 48 54 60 64 66 68 69 69 65 59 59 59 60 59 58 56 56 52 53 55 55 52 52 52 54 56 58 57 57 60 63 65 67 66 65 63 60 59
28 32 38 44 52 58 61 61 62 62 63 62 61 62 60 59 59 58 59 57 57 54 50 49 52 53 48 48 48 50 54 56 58 59 62 66 66 63 61 61 59 60 62
37 45 52 55 57 56 56 57 56 57 58 59 59 60 61 61 61 61 59 57 55 52 48 49 50 49 49 48 48 50 52 54 55 58 58 60 60 57 56 57 59 59 61
48 50 50 50 50 51 53 54 56 58 59 59 61 62 63 63 62 61 59 56 53 50 50 48 47 46 47 48 47 47 46 44 43 44 46 48 52 53 55 57 60 63 65
43 43 44 46 49 52 55 58 60 61 61 61 61 61 62 61 59 58 55 52 50 50 48 46 45 44 45 45 42 37 35 38 43 44 47 51 58 61 60 58 57 59 61
Wind_Direction_850mb
211 213 213 211 212 214 215 216 216 217 219 221 224 230 237 247 255 262 271 278 284 289 294 296 295 295 300 301 302 301 299 297 291 297 302 305 307 309 311 311 312 311 310
211 213 214 215 215 218 218 220 223 226 227 227 232 237 244 252 260 267 273 278 283 288 289 293 296 297 297 298 296 294 294 294 295 295 299 301 302 307 309 311 311 310 308
211 212 214 216 219 221 221 223 227 230 233 235 239 245 250 254 260 266 272 278 282 285 290 292 292 292 294 295 295 295 294 292 292 293 297 299 302 305 305 306 308 308 306
212 213 214 217 221 224 225 227 230 233 236 240 243 247 252 256 261 267 273 277 281 285 287 288 289 290 291 291 292 293 293 292 292 291 293 299 301 306 306 308 307 306 305
213 214 214 214 216 220 224 227 229 234 237 241 245 250 255 260 265 269 273 276 280 281 283 285 286 287 288 290 293 294 296 297 299 300 299 301 302 304 303 306 305 306 303
212 212 210 211 213 218 222 227 230 234 238 242 247 252 256 261 265 269 274 276 279 282 283 283 284 285 287 289 290 291 289 285 286 287 290 289 292 294 296 294 293 296 297
207 207 207 210 212 215 220 224 228 233 237 242 247 251 255 260 265 270 275 280 284 286 288 290 291 292 293 293 293 293 294 295 293 293 292 294 296 301 304 304 300 298 297
204 204 205 207 210 212 216 220 224 229 234 239 245 252 258 264 271 276 280 284 288 291 293 296 296 297 296 296 297 297 296 298 300 300 301 303 305 307 305 304 303 301 299
193 194 196 199 201 203 207 211 216 223 230 238 247 255 263 270 277 281 285 291 293 296 298 299 299 299 299 304 303 303 304 303 305 300 295 290 284 279 278 289 287 294 296
179 181 183 186 189 192 195 201 210 220 231 241 252 262 273 281 286 291 293 297 300 300 298 300 302 303 307 313 316 308 301 300 306 297 291 284 283 287 290 292 292 294 294
168 170 171 173 178 181 188 195 203 214 227 245 265 279 289 294 298 300 302 306 309 305 305 305 304 308 313 313 305 291 295 301 293 290 292 294 296 297 298 297 295 289 291
160 161 162 164 168 171 176 181 192 211 238 267 286 298 302 306 308 307 307 308 308 307 306 306 310 317 308 304 301 306 309 302 303 304 304 304 304 303 301 299 294 291 288
153 154 154 156 156 156 161 172 200 250 290 299 298 301 305 307 309 310 311 310 310 315 309 314 306 307 308 310 308 308 306 307 308 308 307 306 305 304 301 299 296 297 294
148 146 144 144 143 143 140 127 315 311 316 316 313 312 313 314 316 317 320 324 320 319 324 312 307 305 304 304 304 306 308 310 311 310 308 307 307 306 304 305 303 302 300
144 140 138 135 132 130 134 337 323 326 327 326 321 320 320 320 324 325 321 317 318 316 305 300 299 301 303 304 305 306 308 311 313 314 314 313 311 310 309 310 308 300 302
141 140 139 131 135 139 348 326 324 323 320 318 315 314 314 313 315 315 314 313 311 310 294 295 299 301 304 306 308 310 313 315 316 315 315 314 312 312 311 310 308 304 308
131 126 138 144 145 308 306 304 300 300 308 309 307 308 309 309 309 311 313 313 301 296 299 300 302 303 305 307 310 313 314 316 316 315 314 314 314 314 311 312 311 312 311
135 137 124 8 327 322 320 319 318 316 315 313 312 312 311 310 310 310 310 305 303 299 300 303 305 306 308 310 312 313 313 314 315 315 314 315 316 316 317 315 315 317 318
125 85 336 328 325 323 321 318 316 314 313 312 311 309 307 306 307 307 306 307 306 306 306 305 305 304 305 308 311 312 312 313 314 313 313 315 318 320 318 317 317 317 318
358 340 332 328 322 317 313 312 310 310 311 312 314 315 315 313 312 313 311 308 307 305 304 303 304 304 306 309 311 312 312 312 313 314 315 317 318 319 317 318 318 317 316
333 329 322 317 314 313 313 312 313 313 314 313 313 314 315 309 310 308 308 307 306 304 305 305 305 305 307 308 309 310 310 311 313 314 315 316 317 315 315 315 315 316 317
318 317 315 313 313 313 313 314 314 313 313 312 313 312 313 310 309 308 308 308 308 307 306 305 303 304 307 306 307 308 308 309 312 314 315 314 310 308 309 311 314 315 316
312 311 312 313 314 314 314 315 314 314 314 314 314 314 315 315 315 313 312 311 309 307 306 304 301 303 306 305 305 305 307 312 314 311 307 305 305 307 308 307 309 310 313
315 317 317 317 317 317 316 316 316 316 315 315 315 314 314 315 314 313 311 310 309 307 305 304 304 307 307 309 308 309 310 311 309 307 305 303 304 307 307 307 308 311 313
314 314 316 317 317 318 317 319 318 317 316 315 313 312 312 311 311 310 310 310 310 307 304 306 307 308 310 309 311 314 313 311 310 310 310 311 310 311 310 309 310 313 314
313 316 317 318 320 320 320 320 319 318 317 316 315 314 314 312 312 312 312 311 309 306 308 309 308 310 312 314 316 316 318 319 317 316 316 312 310 310 310 309 310 309 310